Location: Holmes Observatory
(37.1039°N, 122.0513°W)
Time: 01:55:26
(UTC-08:00)

Daily predictions for brighter satellites

Satellite Brightness Start Highest point End
(mag) Time Altitude Azimuth Time Altitude Azimuth Time Altitude Azimuth
Lacrosse 5 4.4 04:10:49 13° NE 04:10:49 13° NE 04:11:24 10° NE
H-2A ROCKET BODY 4.4 04:15:26 28° SSW 04:16:37 29° S 04:33:42 10° SE
BREEZE-M DEB (TANK) 3.9 04:35:03 71° E 04:35:03 71° E 04:44:42 10° NE
Cosmos 2056 Rocket 4.4 04:37:42 39° SSE 04:37:42 39° SSE 04:40:51 10° SSE
USA 215 4.3 04:31:10 10° ENE 04:37:16 41° SE 04:43:19 10° SSW
Thor Agena Rocket 4.3 04:36:56 10° SSE 04:40:17 43° SSE 04:40:17 43° SSE
Nadezhda 3 Rocket 4.3 04:50:25 10° N 04:56:48 69° E 05:03:07 10° SSE
Cosmos 2369 Rocket 2.4 04:55:39 41° N 04:57:39 71° ENE 05:03:18 10° SSE
Lacrosse 4 Rocket 3.9 04:56:02 13° NNE 04:57:57 16° NE 05:00:35 10° E
Meteor 1-11 Rocket 3.7 04:54:30 10° S 05:00:20 88° E 05:06:04 10° N
Cosmos 1025 Rocket 4.3 04:57:49 17° NNE 05:00:47 39° E 05:04:51 10° SSE
Meteor 2-4 Rocket 4.2 05:02:43 10° N 05:08:15 61° E 05:13:55 10° SSE
Meteor 1-13 Rocket 4.2 05:08:19 29° NNW 05:11:27 73° W 05:17:19 10° S
Cosmos 1943 3.3 05:21:04 44° W 05:21:57 47° WNW 05:27:24 10° N
Tiangong 2 1.5 05:24:07 61° E 05:24:07 61° E 05:26:49 10° ESE
Cosmos 1943 Rocket 2.8 05:19:13 14° N 05:23:54 53° ENE 05:29:15 10° SE
Cosmos 1452 Rocket 3.4 05:21:45 27° NNW 05:24:40 83° WSW 05:29:57 10° SSE
Cosmos 2341 Rocket 3.9 05:21:51 10° SSW 05:28:07 75° W 05:34:23 10° N
Cosmos 1544 Rocket 4.3 05:26:49 10° S 05:31:03 52° E 05:35:20 10° NNE
Cosmos 1461 3.1 05:34:47 10° SSW 05:39:07 72° ESE 05:43:18 10° NE
COSMO-SKYMED 1 2.4 05:35:17 10° S 05:39:36 70° W 05:42:59 16° NNW
Cosmos 1536 3.5 05:36:13 10° SSW 05:44:07 - N 05:39:00 33° WSW
SL-24 R/B 4.2 05:41:30 10° NNE 05:46:31 89° WSW 05:50:52 10° SSW
ASTRO E2 3.8 05:45:17 21° SW 05:47:23 36° S 05:51:06 10° ESE
Cosmos 1900 4.3 05:45:07 24° NW 05:48:02 65° WSW 05:52:55 10° SSE
CZ-3 R/B 2.8 05:36:04 10° WSW 05:48:09 36° S 05:52:15 10° ESE
Okean 2 3.3 05:44:27 10° N 05:48:38 89° E 05:52:47 10° S
Cosmos 2154 Rocket 4.4 05:43:24 10° SW 05:49:04 37° WNW 05:54:47 10° N
CZ-2C R/B 4.3 05:45:09 10° NNE 05:49:44 33° E 05:54:10 10° SSE
Lacrosse 5 3.6 05:50:03 16° NNW 05:50:09 16° NNW 05:53:11 10° N
BREEZE M DEB (TANK) 4.1 05:37:40 19° WNW 05:51:06 72° SW 05:55:11 10° SE
USA 229 DEB 3.9 05:46:43 10° SW 05:53:19 48° NW 06:00:01 10° NNE
USA 229 3.9 05:46:50 10° SW 05:53:25 48° NW 06:00:07 10° NNE
Cosmos 2084 3.9 05:52:47 30° WNW 05:53:25 32° NW 05:56:52 10° NNE
Meteor 1-28 Rocket 3.1 05:51:20 10° S 05:55:07 85° WSW 05:58:57 10° NNW
Cosmos 839 Rocket 4.2 05:49:40 10° NNW 05:56:08 74° ENE 06:02:16 10° SE
CZ-4 R/B 2.4 05:55:40 10° NNE 05:59:26 46° E 06:03:10 10° S
Cosmos 1892 Rocket 3.5 05:55:20 10° N 05:59:49 76° W 06:04:16 10° S
Cosmos 1340 2.6 05:57:05 10° NNW 06:00:50 64° W 06:04:34 10° S
SMAP 4.4 06:01:06 10° NNE 06:05:33 43° E 06:09:58 10° S
Cosmos 1269 Rocket 4.2 06:01:35 10° SW 06:06:39 47° WNW 06:11:46 10° N
NOSS 3-1 (A) 3.7 06:02:12 10° SSW 06:07:55 69° ESE 06:14:14 10° NE
Meteor 1-12 Rocket 4.5 06:02:58 10° S 06:08:35 75° E 06:14:14 10° NNE
SL-8 Rocket 4.1 06:05:52 10° SSW 06:11:58 55° W 06:18:04 10° N
Cosmos 1420 Rocket 4.2 06:09:43 10° NNW 06:14:44 48° WSW 06:19:42 10° S
CSL-04 Rocket 3.8 06:11:07 10° N 06:16:30 55° WNW 06:21:49 10° SSW
Cosmos 1455 Rocket 3.1 06:15:30 10° SSW 06:19:42 52° W 06:23:57 10° N
USA 215 3.4 06:14:01 10° NE 06:20:18 53° NW 06:26:35 10° WSW
IRS-1A Rocket 4.3 06:17:02 10° N 06:22:47 75° WNW 06:28:36 10° SSW
Ariane Rocket 3.5 06:18:22 10° N 06:22:57 35° WNW 06:27:32 10° SW
Cosmos 2251 Rocket 3.9 06:18:07 10° S 06:23:26 71° ESE 06:28:48 10° NNE
AQUARIUS 4.4 06:21:15 10° NNE 06:25:46 75° ESE 06:30:13 10° S
Cosmos 2366 rocket 4.1 06:20:06 10° SSW 06:26:17 59° W 06:32:34 10° N
SJ-12 3.9 06:22:15 10° N 06:26:25 88° WNW 06:30:34 10° SSW
Meteor 1-29 4.3 06:23:53 10° SE 06:27:02 39° ENE 06:30:14 10° N
CSL-04 Debris 4.3 06:22:13 10° N 06:27:31 52° WNW 06:32:48 10° SSW
Cosmos 1975 2.9 06:23:59 10° SSW 06:28:02 62° W 06:32:07 10° N
Lacrosse 4 Rocket 1.9 06:33:00 10° NW 06:36:51 39° WSW 06:40:36 10° S
ATLAS 5 CENTAUR R/B 4.5 06:33:51 10° N 06:37:30 16° NE 06:41:18 10° ENE
CORIOLIS 4.4 06:32:29 10° NNE 06:37:51 77° ESE 06:43:11 10° S
Cosmos 2218 Rocket 4.5 06:33:13 10° SSW 06:39:10 41° WNW 06:45:10 10° N
Cosmos 2369 Rocket 3.9 06:38:16 10° WNW 06:40:56 14° W 06:43:36 10° SW
SPOT 3 Rocket 3.5 06:40:54 10° N 06:46:03 78° WNW 06:51:12 10° SSW
COSMOS 2406 3.5 06:42:10 10° SW 06:47:32 44° WNW 06:52:58 10° N
BREEZE-M DEB (TANK) 3.3 06:42:26 10° SW 06:51:09 79° NW 06:54:07 10° NE
